[[{"header":{"parameterUnit":"m.s-1","parameterCategory":1,"la1":30.2991,"la2":30.254,"lo1":-89.0895,"lo2":-89.0444,"dy":0.0017,"dx":0.0017,"nx":28,"ny":28,"refTime":"2024-10-19T03:00:00:Z","depth":0,"parameterNumber":2,"parameterNumberName":"U-component_of_WINDS"},"data":[0,0,0,0,0,0,0,0,0,0,0,0,0,0,0,0,0,0,0,0,0,0,0,0,0,0,0,0,0,0,0,0,0,0,0,0,0,0,0,0,0,0,0,0,0,0,0,0,0,0,0,0,0,0,0,0,0,0,-4.8501,-4.8501,0,-4.8514,-4.8514,-4.8515,-4.8302,-4.8296,-4.829,-4.8285,-4.8301,-4.8306,-4.8312,0,0,0,0,0,0,0,0,0,0,0,0,0,-4.8293,-4.8298,-4.8501,-4.8501,-4.8502,-4.8514,-4.8514,-4.8515,-4.8303,-4.8296,-4.8289,-4.8282,-4.8299,-4.8306,-4.8313,0,0,0,0,0,0,0,0,0,0,0,0,0,-4.8353,-4.83,-4.8501,-4.8397,-4.8388,-4.8514,-4.8514,-4.8515,-4.8304,-4.8296,-4.8287,-4.8279,-4.8297,-4.8305,-4.8314,-4.8541,0,0,-4.834,-4.8344,0,0,0,0,0,0,0,0,-4.835,-4.8361,-4.8412,-4.8405,-4.8395,-4.8397,-4.8447,-4.8524,-4.8306,-4.8336,-4.8285,-4.8275,-4.834,-4.8345,-4.8366,-4.8541,-4.8542,-4.8341,-4.8346,-4.835,-4.8352,0,0,0,0,0,0,0,-4.8346,-4.8359,-4.8506,-4.8413,-4.8403,-4.835,-4.8349,-4.846,-4.8387,-4.8333,-4.8317,-4.8322,-4.8334,-4.8358,-4.8365,-4.8542,-4.8341,-4.8348,-4.8354,-4.8357,-4.8903,-4.8912,0,0,0,0,0,0,-4.8356,-4.8357,-4.8506,-4.8507,-4.835,-4.8361,-4.836,-4.8405,-4.8385,-4.8373,-4.8329,-4.8312,-4.8348,-4.8355,-4.8365,-4.8628,-4.835,-4.8358,-4.8363,-4.8894,-4.8905,-4.8915,0,0,0,0,0,0,-4.8352,-4.8371,-4.8505,-4.8428,-4.8441,-4.8374,-4.8427,-4.841,-4.8435,-4.8382,-4.8368,-4.8368,-4.8341,-4.8353,-4.8498,-4.8626,-4.8362,-4.837,-4.8883,-4.8897,-4.891,-4.9159,0,0,0,0,0,0,-4.8347,-4.8371,-4.8457,-4.8431,-4.8446,-4.8639,-4.8435,-4.8417,-4.845,-4.8427,-4.8415,-4.8404,-4.8335,-4.8486,-4.8507,-4.8633,-4.8377,-4.8871,-4.8889,-4.8905,-4.9139,-4.9179,-4.9214,0,0,0,0,0,-4.834,-4.8527,-4.8462,-4.8481,-4.8551,-4.8647,-4.8655,-4.8571,-4.8461,-4.8547,-4.8512,-4.8405,-4.8609,-4.8503,-4.8524,-4.8655,-4.8862,-4.8884,-4.8904,-4.9122,-4.9171,-4.9213,0,0,0,0,0,0,-4.8571,-4.8522,-4.8449,-4.8633,-4.8646,-4.8611,-4.8716,-4.8627,-4.8671,-4.8648,-4.8543,-4.8542,-4.8705,-4.8694,-4.8577,-4.8873,-4.8716,-4.8742,-4.8874,-4.8921,-4.8958,-4.8957,-4.8384,0,0,0,0,0,-4.8643,-4.8724,-4.8677,-4.8844,-4.8853,-4.8785,-4.8823,-4.8757,-4.8766,-4.877,-4.8746,-4.876,-4.8826,-4.8873,-4.8931,-4.9136,-4.913,-4.9236,-4.9274,-4.9305,-4.9329,-4.9436,-4.9482,-4.8983,-4.8983,-4.8983,0,0,-4.8793,-4.8776,-4.8834,-4.889,-4.8891,-4.8978,-4.879,-4.889,-4.8953,-4.8785,-4.8921,-4.8905,-4.8912,-4.9088,-4.9164,-4.9084,-4.9465,-4.9332,-4.9357,-4.9364,-4.9462,-4.9509,-4.9551,-4.8997,-4.8995,-4.8993,0,0,-4.911,-4.9106,-4.9244,-4.9249,-4.9253,-4.9206,-4.924,-4.9218,-4.92,-4.9334,-4.921,-4.9283,-4.9401,-4.9411,-4.9432,-4.9752,-4.9654,-4.9774,-4.9971,-5.0076,-5.0115,-5.015,-5.0264,-5.0306,-4.9798,-4.9798,-4.9799,0,-4.9296,-4.9421,-4.9326,-4.9434,-4.9462,-4.9312,-4.9451,-4.9461,-4.9486,-4.9509,-4.9418,-4.9561,-4.9556,-4.9732,-4.981,-4.9832,-4.9866,-4.9775,-5.0117,-5.0151,-5.0181,-5.0289,-5.0332,-4.9813,-4.9811,-4.981,-4.9808,0,-4.9649,-4.9738,-4.9849,-4.9875,-4.9915,-5.0039,-4.9962,-5.0014,-4.9945,-4.9907,-5.0045,-5.0033,-5.0086,-5.0123,-5.0056,-5.0289,-5.0239,-5.0135,-4.9975,-5.0245,-5.0344,-5.0385,-4.9834,-4.9828,-4.9824,-4.982,0,0,-5.0114,-5.0084,-5.0127,-5.0136,-5.0129,-5.0196,-5.0312,-5.0363,-5.041,-5.0431,-5.0526,-5.0628,-5.0531,-5.0555,-5.0488,-5.058,-5.0834,-5.0463,-5.0462,-5.0533,-5.1089,-5.1168,-5.1217,-5.0768,-5.0776,-5.0782,-5.1089,0,-5.0422,-5.0618,-5.0535,-5.0739,-5.0819,-5.0678,-5.0779,-5.0786,-5.0754,-5.0817,-5.0781,-5.0855,-5.0721,-5.0734,-5.0819,-5.0785,-5.0944,-5.0762,-5.0856,-5.0861,-5.0859,-5.1269,-5.1353,-5.1643,-5.1127,-5.1133,-5.1138,0,-5.0808,-5.0844,-5.1057,-5.1034,-5.1065,-5.1157,-5.1196,-5.1259,-5.1264,-5.1233,-5.126,-5.1172,-5.1284,-5.1124,-5.1277,-5.1155,-5.1188,-5.1178,-5.1187,-5.1193,-5.1016,-5.1287,-5.1734,-5.1778,-5.1198,-5.1193,-5.1189,0,-5.1126,-5.1227,-5.1366,-5.1379,-5.1357,-5.1425,-5.1419,-5.1415,-5.1451,-5.1485,-5.1507,-5.1555,-5.1582,-5.1621,-5.1548,-5.1438,-5.1711,-5.1545,-5.1689,-5.1692,-5.1754,-5.1751,-5.2213,-5.1776,-5.1775,-5.1774,-5.1773,0,-5.1479,-5.1614,-5.1508,-5.1595,-5.1742,-5.1645,-5.1793,-5.1772,-5.177,-5.1849,-5.173,-5.1807,-5.1706,-5.1773,-5.1717,-5.1852,-5.1865,-5.1844,-5.1827,-5.1855,-5.1858,-5.1876,-5.1854,-5.1786,-5.1783,-5.1781,-5.1779,0,-5.1858,-5.1793,-5.1936,-5.1903,-5.1897,-5.2007,-5.1979,-5.2057,-5.2015,-5.2117,-5.2136,-5.2071,-5.2144,-5.2075,-5.2145,-5.2107,-5.2287,-5.2242,-5.2286,-5.2273,-5.2421,-5.2408,-5.2911,-5.2972,-5.2496,-5.2501,-5.2504,0,-5.2088,-5.2189,-5.2166,-5.221,-5.2211,-5.2284,-5.2319,-5.2227,-5.2269,-5.2281,-5.2359,-5.2421,-5.2466,-5.259,-5.2549,-5.2602,-5.2556,-5.2729,-5.2564,-5.2588,-5.2559,-5.2554,-5.2563,-5.2763,-5.2769,-5.2773,-5.2777,0,-5.2503,-5.2465,-5.252,-5.2564,-5.2609,-5.264,-5.2661,-5.2704,-5.2609,-5.2662,-5.2735,-5.277,-5.284,-5.2904,-5.2944,-5.2937,-5.2843,-5.2829,-5.2865,-5.2895,-5.2916,-5.2906,-5.2378,-5.2818,-5.2814,-5.2811,-5.2809,-5.2807,-5.2814,-5.2897,-5.2893,-5.2958,-5.2964,-5.2986,-5.3058,-5.3024,-5.3083,-5.3133,-5.3075,-5.3164,-5.3165,-5.3208,-5.3214,-5.3282,-5.3209,-5.3262,-5.3275,-5.3289,-5.3311,-5.2905,-5.3289,-5.3288,-5.3286,-5.3285,-5.3284,0,-5.3222,-5.3213,-5.3273,-5.3306,-5.3357,-5.3262,-5.328,-5.3329,-5.3409,-5.3418,-5.3464,-5.3548,-5.3609,-5.3573,-5.3625,-5.3687,-5.3644,-5.3704,-5.3698,-5.3698,-5.3373,-5.3337,-5.3737,-5.3737,-5.3737,-5.3737,-5.3736,-5.3736,-5.3441,-5.3575,-5.3537,-5.3673,-5.3661,-5.3747,-5.3766,-5.3786,-5.3792,-5.389,-5.394,-5.3915,-5.3906,-5.3956,-5.4008,-5.3996,-5.4021,-5.4096,-5.4069,-5.3766,-5.3721,-5.3679,-5.3644,-5.4102,-5.4103,-5.4387,-5.439,-5.4392]},{"header":{"parameterUnit":"m.s-1","parameterCategory":1,"la1":30.2991,"la2":30.254,"lo1":-89.0895,"lo2":-89.0444,"dy":0.0017,"dx":0.0017,"nx":28,"ny":28,"refTime":"2024-10-19T03:00:00:Z","depth":0,"parameterNumber":3,"parameterNumberName":"V-component_of_WINDS"},"data":[0,0,0,0,0,0,0,0,0,0,0,0,0,0,0,0,0,0,0,0,0,0,0,0,0,0,0,0,0,0,0,0,0,0,0,0,0,0,0,0,0,0,0,0,0,0,0,0,0,0,0,0,0,0,0,0,0,0,-2.543,-2.5431,0,-2.5472,-2.5473,-2.5473,-2.5481,-2.548,-2.548,-2.5479,-2.5521,-2.5522,-2.5524,0,0,0,0,0,0,0,0,0,0,0,0,0,-2.5352,-2.5354,-2.543,-2.5431,-2.5431,-2.5472,-2.5473,-2.5473,-2.5481,-2.548,-2.548,-2.5479,-2.5521,-2.5522,-2.5524,0,0,0,0,0,0,0,0,0,0,0,0,0,-2.5389,-2.5354,-2.543,-2.544,-2.5441,-2.5472,-2.5473,-2.5474,-2.5481,-2.548,-2.548,-2.5479,-2.552,-2.5522,-2.5524,-2.5548,0,0,-2.5531,-2.5532,0,0,0,0,0,0,0,0,-2.5387,-2.5392,-2.5438,-2.5439,-2.5441,-2.5471,-2.5461,-2.5498,-2.5481,-2.5466,-2.5479,-2.5479,-2.5505,-2.5508,-2.5517,-2.555,-2.5552,-2.5531,-2.5532,-2.5533,-2.5534,0,0,0,0,0,0,0,-2.5385,-2.539,-2.5447,-2.5438,-2.544,-2.5441,-2.5445,-2.5468,-2.5487,-2.5467,-2.5467,-2.5472,-2.5505,-2.5515,-2.5518,-2.5552,-2.5531,-2.5533,-2.5534,-2.5535,-2.5604,-2.5604,0,0,0,0,0,0,-2.5381,-2.5388,-2.5445,-2.5448,-2.5412,-2.5443,-2.5448,-2.5462,-2.5487,-2.5491,-2.5473,-2.5473,-2.5511,-2.5515,-2.5519,-2.5547,-2.5533,-2.5535,-2.5536,-2.5603,-2.5604,-2.5605,0,0,0,0,0,0,-2.5379,-2.5386,-2.5444,-2.5418,-2.5426,-2.5445,-2.546,-2.5463,-2.5472,-2.5492,-2.5495,-2.5479,-2.5511,-2.5516,-2.554,-2.5549,-2.5536,-2.5538,-2.5603,-2.5604,-2.5604,-2.5604,0,0,0,0,0,0,-2.5377,-2.5385,-2.5395,-2.5418,-2.5427,-2.5465,-2.546,-2.5464,-2.5476,-2.5476,-2.5499,-2.5502,-2.5511,-2.5537,-2.5542,-2.5552,-2.554,-2.5602,-2.5603,-2.5604,-2.5604,-2.5605,-2.5606,0,0,0,0,0,-2.5374,-2.5394,-2.5396,-2.5403,-2.5441,-2.5466,-2.547,-2.5481,-2.5477,-2.5487,-2.5499,-2.5501,-2.5547,-2.5539,-2.5546,-2.5556,-2.5602,-2.5603,-2.5604,-2.5603,-2.5605,-2.5606,0,0,0,0,0,0,-2.5372,-2.5397,-2.54,-2.5428,-2.5445,-2.5467,-2.548,-2.5483,-2.5501,-2.55,-2.5512,-2.5517,-2.5539,-2.555,-2.5541,-2.5578,-2.5574,-2.5576,-2.5571,-2.5573,-2.5574,-2.5571,-2.5542,0,0,0,0,0,-2.5375,-2.5394,-2.5415,-2.5438,-2.5446,-2.5461,-2.5472,-2.5479,-2.5496,-2.5503,-2.5517,-2.5533,-2.5551,-2.5562,-2.558,-2.5605,-2.5609,-2.5615,-2.5616,-2.5617,-2.5619,-2.563,-2.5633,-2.5609,-2.5609,-2.5609,0,0,-2.5381,-2.5397,-2.5408,-2.5437,-2.5451,-2.5469,-2.5467,-2.5487,-2.55,-2.5506,-2.5529,-2.554,-2.5558,-2.5582,-2.5593,-2.5591,-2.5626,-2.5618,-2.5619,-2.562,-2.5632,-2.5634,-2.5636,-2.5609,-2.5609,-2.5609,0,0,-2.5401,-2.5416,-2.5436,-2.5449,-2.5469,-2.5478,-2.5483,-2.5504,-2.5511,-2.5535,-2.5539,-2.5554,-2.5585,-2.5597,-2.5607,-2.5629,-2.5631,-2.5634,-2.5641,-2.5652,-2.5654,-2.5656,-2.5662,-2.5664,-2.5636,-2.5636,-2.5636,0,-2.5406,-2.5434,-2.5445,-2.5464,-2.5476,-2.5482,-2.55,-2.5512,-2.5537,-2.5544,-2.5542,-2.5579,-2.5592,-2.5618,-2.5623,-2.5632,-2.5636,-2.5632,-2.5653,-2.5655,-2.5656,-2.5662,-2.5665,-2.5636,-2.5636,-2.5636,-2.5636,0,-2.5438,-2.5457,-2.5471,-2.5494,-2.5507,-2.5526,-2.5538,-2.555,-2.5554,-2.5564,-2.5586,-2.5601,-2.5621,-2.5627,-2.5633,-2.5653,-2.5651,-2.5651,-2.5646,-2.5659,-2.5664,-2.5667,-2.5636,-2.5636,-2.5636,-2.5636,0,0,-2.546,-2.5487,-2.5492,-2.5501,-2.5522,-2.5537,-2.5555,-2.5574,-2.5583,-2.5599,-2.5613,-2.5638,-2.5637,-2.5648,-2.5655,-2.5664,-2.5678,-2.5663,-2.5663,-2.5664,-2.5699,-2.5699,-2.5702,-2.568,-2.568,-2.5681,-2.5697,0,-2.5482,-2.5515,-2.5523,-2.5551,-2.5567,-2.5572,-2.5587,-2.5601,-2.5609,-2.5624,-2.5633,-2.565,-2.5648,-2.5654,-2.5664,-2.5674,-2.5685,-2.5673,-2.5692,-2.5692,-2.5687,-2.5705,-2.5706,-2.5721,-2.57,-2.57,-2.5701,0,-2.5512,-2.5528,-2.5557,-2.5574,-2.5581,-2.5595,-2.5611,-2.5626,-2.564,-2.5646,-2.5657,-2.5662,-2.5679,-2.5673,-2.5696,-2.5687,-2.5695,-2.5701,-2.5702,-2.5704,-2.5697,-2.5707,-2.5726,-2.5728,-2.5705,-2.5704,-2.5704,0,-2.5523,-2.5552,-2.5572,-2.558,-2.5601,-2.561,-2.5619,-2.5633,-2.5643,-2.5657,-2.5664,-2.568,-2.5689,-2.57,-2.5708,-2.5704,-2.573,-2.5725,-2.5733,-2.5733,-2.5739,-2.5738,-2.5759,-2.5745,-2.5745,-2.5745,-2.5745,0,-2.5546,-2.5563,-2.5577,-2.5589,-2.5608,-2.5617,-2.5634,-2.5643,-2.5655,-2.5669,-2.5673,-2.5685,-2.5696,-2.5709,-2.5715,-2.5732,-2.5736,-2.574,-2.5741,-2.5739,-2.5738,-2.5744,-2.5743,-2.5745,-2.5745,-2.5745,-2.5745,0,-2.5561,-2.5572,-2.5594,-2.5611,-2.5615,-2.5628,-2.5642,-2.5653,-2.5661,-2.5677,-2.5682,-2.5694,-2.5709,-2.5718,-2.5738,-2.5742,-2.576,-2.5761,-2.5755,-2.5755,-2.5763,-2.5761,-2.5788,-2.5791,-2.5775,-2.5775,-2.5775,0,-2.5575,-2.5588,-2.5606,-2.5615,-2.5624,-2.5639,-2.5649,-2.5657,-2.5667,-2.5684,-2.5692,-2.5708,-2.5721,-2.5745,-2.5755,-2.5769,-2.577,-2.5778,-2.5772,-2.5769,-2.5769,-2.5768,-2.5768,-2.5779,-2.5779,-2.5779,-2.5779,0,-2.5598,-2.5602,-2.5616,-2.5631,-2.5643,-2.5656,-2.5668,-2.5675,-2.5685,-2.5696,-2.5711,-2.5721,-2.574,-2.5755,-2.577,-2.5778,-2.578,-2.5781,-2.5783,-2.5781,-2.5777,-2.5778,-2.5757,-2.578,-2.578,-2.578,-2.578,-2.578,-2.5612,-2.5623,-2.5637,-2.5652,-2.5662,-2.5673,-2.5684,-2.5692,-2.5705,-2.5722,-2.5725,-2.5741,-2.5753,-2.5773,-2.5781,-2.5793,-2.5792,-2.5795,-2.5796,-2.5797,-2.5797,-2.5775,-2.5796,-2.5796,-2.5796,-2.5796,-2.5796,0,-2.5634,-2.5642,-2.5656,-2.5673,-2.5684,-2.5685,-2.5698,-2.5707,-2.5721,-2.5733,-2.5745,-2.5761,-2.5775,-2.5785,-2.5799,-2.5806,-2.5807,-2.5809,-2.5808,-2.581,-2.5798,-2.5794,-2.5808,-2.5808,-2.5808,-2.5808,-2.5808,-2.5808,-2.5647,-2.5664,-2.5669,-2.5691,-2.5699,-2.5715,-2.5722,-2.5731,-2.574,-2.5759,-2.577,-2.5776,-2.5787,-2.5801,-2.5813,-2.5815,-2.582,-2.5821,-2.5824,-2.5812,-2.5811,-2.581,-2.5806,-2.5823,-2.5823,-2.5835,-2.5835,-2.5835]}]]